• In Uzbekistan
  • List of Countries
  • For 7 days
  • Water Temperature
  • Satellite Maps
  • Weather Map
  • Weather Widgets
  • user-avatar
    Login

    Hourly Weather Encamp

    Today, 25 February, Saturday

    Time Temperature Precipitation Wind Pressure Humidity
    00:00 -6°C° 0 mm 3 mps 621 mmHg 81%
    01:00 -6°C° 0 mm 3 mps 621 mmHg 80%
    02:00 -6°C° 0 mm 3 mps 621 mmHg 79%
    03:00 -6°C° 0 mm 3 mps 621 mmHg 77%
    04:00 -7°C° 0 mm 3 mps 621 mmHg 76%
    05:00 -6°C° 0 mm 2 mps 621 mmHg 75%
    06:00 -6°C° 0 mm 2 mps 621 mmHg 74%
    07:00 -4°C° 0 mm 2 mps 622 mmHg 67%
    08:00 -2°C° 0 mm 2 mps 623 mmHg 60%
    09:00 +1°C° 0 mm 2 mps 624 mmHg 53%
    10:00 +4°C° 0 mm 1 mps 625 mmHg 49%
    11:00 +6°C° 0 mm 1 mps 625 mmHg 45%
    12:00 +7°C° 0 mm 1 mps 626 mmHg 41%
    13:00 +7°C° 0 mm 1 mps 626 mmHg 43%
    14:00 +7°C° 0 mm 1 mps 625 mmHg 45%
    15:00 +7°C° 0 mm 1 mps 625 mmHg 47%
    16:00 +4°C° 0 mm 1 mps 624 mmHg 59%
    17:00 +2°C° 0 mm 1 mps 623 mmHg 71%
    18:00 -1°C° 0 mm 1 mps 622 mmHg 83%
    19:00 -1°C° 0 mm 1 mps 622 mmHg 84%
    20:00 -2°C° 0 mm 1 mps 622 mmHg 85%
    21:00 -2°C° 0 mm 1 mps 622 mmHg 85%
    22:00 -2°C° 0 mm 1 mps 622 mmHg 85%
    23:00 -2°C° 0 mm 1 mps 623 mmHg 85%

    Tomorrow, 26 February, Sunday

    Time Temperature Precipitation Wind Pressure Humidity
    00:00 -2°C° 0 mm 1 mps 623 mmHg 84%
    01:00 -2°C° 0 mm 1 mps 622 mmHg 82%
    02:00 -2°C° 0 mm 1 mps 622 mmHg 79%
    03:00 -2°C° 0 mm 1 mps 622 mmHg 76%
    04:00 -2°C° 0 mm 1 mps 622 mmHg 73%
    05:00 -2°C° 0 mm 1 mps 622 mmHg 71%
    06:00 -2°C° 0 mm 1 mps 622 mmHg 68%
    07:00 0°C° 0 mm 1 mps 624 mmHg 61%
    08:00 +3°C° 0 mm 1 mps 625 mmHg 54%
    09:00 +6°C° 0 mm 1 mps 626 mmHg 46%
    10:00 +7°C° 0 mm 1 mps 626 mmHg 45%
    11:00 +8°C° 0 mm 1 mps 627 mmHg 43%
    12:00 +9°C° 0 mm 1 mps 627 mmHg 42%
    13:00 +9°C° 0 mm 1 mps 626 mmHg 45%
    14:00 +9°C° 0 mm 1 mps 626 mmHg 47%
    15:00 +9°C° 0 mm 1 mps 625 mmHg 50%
    16:00 +6°C° 0 mm 1 mps 624 mmHg 63%
    17:00 +3°C° 0 mm 1 mps 623 mmHg 76%
    18:00 0°C° 0 mm 1 mps 621 mmHg 89%
    19:00 0°C° 0 mm 1 mps 621 mmHg 89%
    20:00 -2°C° 0 mm 0 mps 621 mmHg 89%
    21:00 -2°C° 0 mm 0 mps 621 mmHg 90%
    22:00 -2°C° 0 mm 0 mps 621 mmHg 89%
    23:00 -1°C° 0 mm 1 mps 620 mmHg 88%

    Day after tomorrow, 27 February, Monday

    Time Temperature Precipitation Wind Pressure Humidity
    00:00 -1°C° 0 mm 1 mps 620 mmHg 87%
    01:00 -1°C° 0 mm 1 mps 620 mmHg 85%
    02:00 -1°C° 0 mm 1 mps 619 mmHg 82%
    03:00 -1°C° 0 mm 1 mps 619 mmHg 79%
    04:00 -1°C° 0 mm 1 mps 619 mmHg 78%
    05:00 -1°C° 0 mm 1 mps 619 mmHg 77%
    06:00 -1°C° 0 mm 1 mps 618 mmHg 75%
    07:00 +1°C° 0 mm 1 mps 619 mmHg 69%
    08:00 +4°C° 0 mm 1 mps 620 mmHg 63%
    09:00 +6°C° 0 mm 1 mps 621 mmHg 57%
    10:00 +7°C° 0 mm 1 mps 622 mmHg 53%
    11:00 +8°C° 0 mm 2 mps 622 mmHg 50%
    12:00 +9°C° 0 mm 2 mps 622 mmHg 46%
    13:00 +9°C° 0 mm 2 mps 622 mmHg 48%
    14:00 +8°C° 0 mm 2 mps 621 mmHg 49%
    15:00 +8°C° 0 mm 2 mps 621 mmHg 51%
    16:00 +6°C° 0 mm 2 mps 620 mmHg 62%
    17:00 +4°C° 0 mm 1 mps 619 mmHg 74%
    18:00 +2°C° 0 mm 1 mps 618 mmHg 85%
    19:00 +1°C° 0 mm 1 mps 619 mmHg 88%
    20:00 +1°C° 0 mm 1 mps 619 mmHg 90%
    21:00 +1°C° 0 mm 1 mps 619 mmHg 93%
    22:00 0°C° 0 mm 1 mps 619 mmHg 92%
    23:00 0°C° 0 mm 1 mps 619 mmHg 92%

    28 February, Tuesday

    Time Temperature Precipitation Wind Pressure Humidity
    00:00 0°C° 0 mm 1 mps 619 mmHg 92%
    01:00 0°C° 0 mm 1 mps 618 mmHg 92%
    02:00 -1°C° 0 mm 1 mps 618 mmHg 93%
    03:00 -1°C° 0 mm 1 mps 618 mmHg 93%
    04:00 -1°C° 0 mm 1 mps 617 mmHg 92%
    05:00 -1°C° 0 mm 1 mps 617 mmHg 92%
    06:00 -1°C° 0 mm 1 mps 617 mmHg 92%
    07:00 +1°C° 0 mm 1 mps 618 mmHg 83%
    08:00 +3°C° 0 mm 1 mps 619 mmHg 75%
    09:00 +5°C° 0 mm 1 mps 620 mmHg 66%
    10:00 +5°C° 0 mm 2 mps 621 mmHg 62%
    11:00 +5°C° 0 mm 3 mps 621 mmHg 58%
    12:00 +7°C° 0 mm 3 mps 621 mmHg 53%
    13:00 +6°C° 0 mm 4 mps 621 mmHg 53%
    14:00 +6°C° 0 mm 4 mps 621 mmHg 53%
    15:00 +6°C° 0 mm 4 mps 621 mmHg 54%
    16:00 +4°C° 0 mm 3 mps 621 mmHg 64%
    17:00 +2°C° 0 mm 3 mps 621 mmHg 75%
    18:00 +1°C° 0 mm 2 mps 620 mmHg 86%
    19:00 -1°C° 0 mm 2 mps 620 mmHg 86%
    20:00 -1°C° 0 mm 2 mps 621 mmHg 87%
    21:00 -1°C° 0 mm 2 mps 621 mmHg 88%
    22:00 -2°C° 0 mm 2 mps 621 mmHg 86%
    23:00 -2°C° 0 mm 2 mps 621 mmHg 85%

    1 March, Wednesday

    Time Temperature Precipitation Wind Pressure Humidity
    00:00 -2°C° 0 mm 2 mps 621 mmHg 84%
    01:00 -2°C° 0 mm 2 mps 621 mmHg 85%
    02:00 0°C° 0 mm 1 mps 621 mmHg 85%
    03:00 -1°C° 0 mm 1 mps 621 mmHg 86%
    04:00 -1°C° 0 mm 1 mps 621 mmHg 87%
    05:00 -1°C° 0 mm 1 mps 621 mmHg 88%
    06:00 -2°C° 0 mm 0 mps 621 mmHg 90%
    07:00 +1°C° 0 mm 1 mps 623 mmHg 81%
    08:00 +3°C° 0 mm 1 mps 624 mmHg 72%
    09:00 +6°C° 0 mm 1 mps 625 mmHg 63%
    10:00 +7°C° 0 mm 1 mps 626 mmHg 60%
    11:00 +7°C° 0 mm 2 mps 626 mmHg 58%
    12:00 +8°C° 0 mm 2 mps 626 mmHg 55%
    13:00 +8°C° 0 mm 2 mps 626 mmHg 56%
    14:00 +8°C° 0 mm 2 mps 625 mmHg 58%
    15:00 +8°C° 0 mm 2 mps 625 mmHg 60%
    16:00 +5°C° 0 mm 2 mps 624 mmHg 70%
    17:00 +4°C° 0 mm 1 mps 624 mmHg 81%
    18:00 +2°C° 0 mm 1 mps 623 mmHg 91%
    19:00 0°C° 0 mm 0 mps 623 mmHg 92%
    20:00 0°C° 0 mm 0 mps 623 mmHg 93%
    21:00 -1°C° 0 mm 0 mps 623 mmHg 95%
    22:00 -1°C° 0 mm 0 mps 623 mmHg 95%
    23:00 -1°C° 0 mm 0 mps 623 mmHg 95%

    2 March, Thursday

    Time Temperature Precipitation Wind Pressure Humidity
    00:00 -2°C° 0 mm 0 mps 622 mmHg 95%
    01:00 -2°C° 0 mm 0 mps 622 mmHg 94%
    02:00 -2°C° 0 mm 0 mps 622 mmHg 94%
    03:00 -2°C° 0 mm 0 mps 621 mmHg 93%
    04:00 -2°C° 0 mm 0 mps 622 mmHg 93%
    05:00 -2°C° 0 mm 0 mps 622 mmHg 92%
    06:00 -1°C° 0 mm 1 mps 622 mmHg 92%
    07:00 +1°C° 0 mm 1 mps 623 mmHg 81%
    08:00 +4°C° 0 mm 1 mps 624 mmHg 69%
    09:00 +7°C° 0 mm 1 mps 625 mmHg 58%
    10:00 +7°C° 0 mm 2 mps 625 mmHg 53%
    11:00 +8°C° 0 mm 2 mps 625 mmHg 48%
    12:00 +9°C° 0 mm 3 mps 626 mmHg 43%
    13:00 +9°C° 0 mm 3 mps 625 mmHg 45%
    14:00 +9°C° 0 mm 3 mps 625 mmHg 47%
    15:00 +9°C° 0 mm 3 mps 624 mmHg 49%
    16:00 +7°C° 0 mm 2 mps 623 mmHg 60%
    17:00 +4°C° 0 mm 2 mps 622 mmHg 72%
    18:00 +2°C° 0 mm 1 mps 621 mmHg 84%
    19:00 +2°C° 0 mm 1 mps 621 mmHg 83%
    20:00 +2°C° 0 mm 1 mps 621 mmHg 82%
    21:00 +2°C° 0 mm 1 mps 622 mmHg 81%
    22:00 +2°C° 0 mm 1 mps 622 mmHg 84%
    23:00 +2°C° 0 mm 1 mps 622 mmHg 87%
    Show more